Time,TemperatureF,DewpointF,PressureIn,WindDirection,WindDirectionDegrees,WindSpeedMPH,WindSpeedGustMPH,Humidity,HourlyPrecipIn,Conditions,Clouds,dailyrainin,SoftwareType,DateUTC
2013-06-19 00:02:00,59.0,58.0,29.82,South,169,0.0,1.0,96,0.00,,,0.03,,2013-06-19 04:02:00,
2013-06-19 00:12:00,59.0,58.0,29.82,South,169,0.0,0.0,96,0.00,,,0.03,,2013-06-19 04:12:00,
2013-06-19 00:23:00,59.0,58.0,29.82,South,169,0.0,0.0,96,0.00,,,0.03,,2013-06-19 04:23:00,
2013-06-19 00:33:00,59.0,58.0,29.82,South,169,0.0,0.0,96,0.00,,,0.03,,2013-06-19 04:33:00,
2013-06-19 00:43:00,59.0,58.0,29.82,South,169,0.0,0.0,96,0.00,,,0.03,,2013-06-19 04:43:00,
2013-06-19 00:53:00,59.0,58.0,29.83,South,169,0.0,0.0,95,0.00,,,0.03,,2013-06-19 04:53:00,
2013-06-19 01:01:00,59.0,58.0,29.83,South,169,0.0,0.0,95,0.00,,,0.03,,2013-06-19 05:01:00,
2013-06-19 01:11:00,59.0,58.0,29.83,South,169,0.0,0.0,95,0.00,,,0.03,,2013-06-19 05:11:00,
2013-06-19 01:23:00,59.0,58.0,29.82,South,169,0.0,0.0,96,0.00,,,0.03,,2013-06-19 05:23:00,
2013-06-19 01:32:00,59.0,58.0,29.82,South,169,0.0,0.0,96,0.00,,,0.02,,2013-06-19 05:32:00,
2013-06-19 01:43:00,59.0,58.0,29.82,South,169,0.0,0.0,96,0.00,,,0.02,,2013-06-19 05:43:00,
2013-06-19 01:52:00,59.0,58.0,29.82,South,169,0.0,1.0,96,0.00,,,0.02,,2013-06-19 05:52:00,
2013-06-19 02:02:00,59.0,58.0,29.82,South,169,0.0,1.0,96,0.00,,,0.02,,2013-06-19 06:02:00,
2013-06-19 02:11:00,59.0,58.0,29.81,South,169,0.0,0.0,96,0.00,,,0.02,,2013-06-19 06:11:00,
2013-06-19 02:22:00,59.0,58.0,29.81,South,169,0.0,0.0,96,0.00,,,0.02,,2013-06-19 06:22:00,
2013-06-19 02:34:00,59.0,58.0,29.81,South,169,0.0,0.0,96,0.00,,,0.02,,2013-06-19 06:34:00,
2013-06-19 02:43:00,59.0,58.0,29.81,South,169,0.0,0.0,95,0.00,,,0.02,,2013-06-19 06:43:00,
2013-06-19 02:52:00,59.0,58.0,29.81,South,169,0.0,0.0,95,0.00,,,0.02,,2013-06-19 06:52:00,
2013-06-19 03:01:00,58.0,57.0,29.82,South,169,0.0,0.0,95,0.00,,,0.02,,2013-06-19 07:01:00,
2013-06-19 03:11:00,58.0,57.0,29.81,South,169,0.0,0.0,95,0.00,,,0.02,,2013-06-19 07:11:00,
2013-06-19 03:22:00,58.0,57.0,29.81,South,169,0.0,0.0,95,0.00,,,0.02,,2013-06-19 07:22:00,
2013-06-19 03:33:00,57.0,56.0,29.81,South,169,0.0,0.0,95,0.00,,,0.02,,2013-06-19 07:33:00,
2013-06-19 03:43:00,57.0,56.0,29.81,South,169,0.0,1.0,95,0.00,,,0.02,,2013-06-19 07:43:00,
2013-06-19 03:53:00,57.0,56.0,29.81,South,169,0.0,0.0,96,0.00,,,0.02,,2013-06-19 07:53:00,
2013-06-19 04:02:00,57.0,56.0,29.81,South,169,0.0,0.0,96,0.00,,,0.02,,2013-06-19 08:02:00,
2013-06-19 04:11:00,57.0,56.0,29.81,NE,39,0.0,3.0,97,0.00,,,0.02,,2013-06-19 08:11:00,
2013-06-19 04:22:00,57.0,56.0,29.81,North,355,1.0,3.0,96,0.00,,,0.02,,2013-06-19 08:22:00,
2013-06-19 04:34:00,57.0,56.0,29.81,North,355,1.0,3.0,96,0.00,,,0.02,,2013-06-19 08:34:00,
2013-06-19 04:43:00,57.0,56.0,29.82,NNW,341,1.0,3.0,96,0.00,,,0.02,,2013-06-19 08:43:00,
2013-06-19 04:53:00,57.0,56.0,29.82,NNW,341,1.0,3.0,96,0.00,,,0.02,,2013-06-19 08:53:00,
2013-06-19 05:02:00,57.0,56.0,29.83,NNW,346,1.0,3.0,95,0.00,,,0.02,,2013-06-19 09:02:00,
2013-06-19 05:12:00,57.0,56.0,29.82,North,355,1.0,4.0,95,0.00,,,0.02,,2013-06-19 09:12:00,
2013-06-19 05:22:00,57.0,56.0,29.82,North,355,1.0,4.0,95,0.00,,,0.02,,2013-06-19 09:22:00,
2013-06-19 05:34:00,56.0,55.0,29.83,NNW,345,0.0,5.0,95,0.00,,,0.02,,2013-06-19 09:34:00,
2013-06-19 05:44:00,56.0,55.0,29.83,North,11,1.0,4.0,95,0.01,,,0.03,,2013-06-19 09:44:00,
2013-06-19 05:53:00,56.0,55.0,29.83,North,11,1.0,4.0,95,0.01,,,0.03,,2013-06-19 09:53:00,
2013-06-19 06:02:00,56.0,54.0,29.83,North,355,2.0,5.0,94,0.01,,,0.03,,2013-06-19 10:02:00,
2013-06-19 06:12:00,56.0,54.0,29.83,North,355,1.0,5.0,94,0.01,,,0.03,,2013-06-19 10:12:00,
2013-06-19 06:22:00,56.0,54.0,29.83,North,355,1.0,5.0,94,0.01,,,0.03,,2013-06-19 10:22:00,
2013-06-19 06:33:00,56.0,54.0,29.83,NNW,347,1.0,3.0,93,0.01,,,0.03,,2013-06-19 10:33:00,
2013-06-19 06:42:00,57.0,54.0,29.84,NW,324,2.0,6.0,91,0.00,,,0.03,,2013-06-19 10:42:00,
2013-06-19 06:53:00,57.0,54.0,29.84,NW,324,2.0,6.0,91,0.00,,,0.03,,2013-06-19 10:53:00,
2013-06-19 07:02:00,58.0,54.0,29.84,North,355,3.0,8.0,88,0.00,,,0.03,,2013-06-19 11:02:00,
2013-06-19 07:12:00,59.0,54.0,29.85,North,5,2.0,6.0,85,0.00,,,0.03,,2013-06-19 11:12:00,
2013-06-19 07:22:00,59.0,54.0,29.85,North,5,2.0,6.0,85,0.00,,,0.03,,2013-06-19 11:22:00,
2013-06-19 07:33:00,59.0,54.0,29.85,North,360,2.0,6.0,83,0.00,,,0.03,,2013-06-19 11:33:00,
2013-06-19 07:43:00,60.0,54.0,29.86,North,355,5.0,10.0,81,0.00,,,0.03,,2013-06-19 11:43:00,
2013-06-19 07:54:00,60.0,54.0,29.86,North,355,5.0,10.0,81,0.00,,,0.03,,2013-06-19 11:54:00,
2013-06-19 08:44:00,66.0,56.0,29.87,NE,56,4.0,7.0,70,0.00,,,0.03,,2013-06-19 12:44:00,
2013-06-19 08:53:00,66.0,56.0,29.87,NE,56,4.0,7.0,70,0.00,,,0.03,,2013-06-19 12:53:00,
2013-06-19 09:02:00,67.0,57.0,29.88,North,5,3.0,6.0,70,0.00,,,0.03,,2013-06-19 13:02:00,
2013-06-19 09:33:00,71.0,56.0,29.88,WNW,303,2.0,6.0,60,0.00,,,0.03,,2013-06-19 13:33:00,
2013-06-19 11:33:00,77.0,54.0,29.91,North,5,4.0,9.0,45,0.00,,,0.02,,2013-06-19 15:33:00,
2013-06-19 12:02:00,77.0,52.0,29.90,NE,44,3.0,8.0,42,0.00,,,0.02,,2013-06-19 16:02:00,
2013-06-19 12:34:00,77.0,50.0,29.90,NNW,334,3.0,8.0,39,0.00,,,0.02,,2013-06-19 16:34:00,
2013-06-19 12:43:00,76.0,52.0,29.90,NNE,32,2.0,9.0,43,0.00,,,0.02,,2013-06-19 16:43:00,
2013-06-19 12:52:00,76.0,52.0,29.90,NNE,32,2.0,9.0,43,0.00,,,0.02,,2013-06-19 16:52:00,
2013-06-19 13:02:00,76.0,51.0,29.90,North,349,3.0,10.0,41,0.00,,,0.02,,2013-06-19 17:02:00,
2013-06-19 13:12:00,76.0,51.0,29.90,North,349,3.0,10.0,41,0.00,,,0.02,,2013-06-19 17:12:00,
2013-06-19 13:22:00,77.0,53.0,29.89,North,5,1.0,6.0,44,0.00,,,0.02,,2013-06-19 17:22:00,
2013-06-19 13:34:00,75.0,52.0,29.90,NNW,329,1.0,7.0,44,0.00,,,0.02,,2013-06-19 17:34:00,
2013-06-19 13:43:00,76.0,52.0,29.90,East,92,3.0,8.0,44,0.00,,,0.02,,2013-06-19 17:43:00,
2013-06-19 13:53:00,76.0,52.0,29.90,East,92,3.0,8.0,44,0.00,,,0.02,,2013-06-19 17:53:00,
2013-06-19 14:02:00,78.0,53.0,29.89,ENE,57,2.0,7.0,42,0.00,,,0.02,,2013-06-19 18:02:00,
2013-06-19 14:12:00,78.0,53.0,29.89,ENE,57,2.0,7.0,42,0.00,,,0.02,,2013-06-19 18:12:00,
2013-06-19 14:24:00,76.0,52.0,29.89,NE,36,2.0,8.0,44,0.00,,,0.02,,2013-06-19 18:24:00,
2013-06-19 14:33:00,76.0,51.0,29.90,North,5,4.0,9.0,42,0.00,,,0.02,,2013-06-19 18:33:00,
2013-06-19 14:44:00,76.0,51.0,29.90,North,5,4.0,9.0,42,0.00,,,0.02,,2013-06-19 18:44:00,
2013-06-19 14:53:00,77.0,50.0,29.90,NNW,346,2.0,9.0,39,0.00,,,0.02,,2013-06-19 18:53:00,
2013-06-19 15:01:00,76.0,50.0,29.90,SSW,204,3.0,8.0,40,0.01,,,0.03,,2013-06-19 19:01:00,
2013-06-19 15:12:00,78.0,49.0,29.90,ESE,109,3.0,9.0,36,0.01,,,0.03,,2013-06-19 19:12:00,
2013-06-19 15:22:00,78.0,49.0,29.90,ESE,109,3.0,9.0,36,0.01,,,0.03,,2013-06-19 19:22:00,
2013-06-19 15:32:00,78.0,50.0,29.90,North,360,3.0,7.0,37,0.01,,,0.03,,2013-06-19 19:32:00,
2013-06-19 15:43:00,76.0,46.0,29.90,North,355,6.0,12.0,35,0.00,,,0.03,,2013-06-19 19:43:00,
2013-06-19 15:53:00,76.0,46.0,29.90,North,355,6.0,12.0,35,0.00,,,0.03,,2013-06-19 19:53:00,
2013-06-19 16:02:00,78.0,48.0,29.90,West,259,2.0,10.0,35,0.00,,,0.03,,2013-06-19 20:02:00,
2013-06-19 16:11:00,78.0,47.0,29.91,West,276,1.0,7.0,34,0.00,,,0.03,,2013-06-19 20:11:00,
2013-06-19 16:22:00,78.0,47.0,29.91,West,276,1.0,7.0,34,0.00,,,0.03,,2013-06-19 20:22:00,
2013-06-19 16:33:00,78.0,48.0,29.91,NNW,344,2.0,5.0,35,0.00,,,0.03,,2013-06-19 20:33:00,
2013-06-19 16:42:00,77.0,49.0,29.91,North,355,0.0,5.0,38,0.00,,,0.03,,2013-06-19 20:42:00,
2013-06-19 16:52:00,77.0,49.0,29.91,North,355,0.0,5.0,38,0.00,,,0.03,,2013-06-19 20:52:00,
2013-06-19 17:02:00,77.0,48.0,29.91,North,355,2.0,7.0,36,0.00,,,0.03,,2013-06-19 21:02:00,
2013-06-19 17:12:00,76.0,46.0,29.91,NNW,333,3.0,7.0,35,0.00,,,0.03,,2013-06-19 21:12:00,
2013-06-19 17:22:00,76.0,46.0,29.91,NNW,333,3.0,7.0,35,0.00,,,0.03,,2013-06-19 21:22:00,
2013-06-19 17:33:00,75.0,45.0,29.91,North,5,6.0,11.0,34,0.00,,,0.03,,2013-06-19 21:33:00,
2013-06-19 17:44:00,74.0,45.0,29.90,WSW,246,3.0,8.0,36,0.00,,,0.03,,2013-06-19 21:44:00,
2013-06-19 17:52:00,74.0,45.0,29.90,WSW,246,3.0,8.0,36,0.00,,,0.03,,2013-06-19 21:52:00,
2013-06-19 18:02:00,73.0,43.0,29.91,NNW,341,1.0,8.0,34,0.00,,,0.03,,2013-06-19 22:02:00,
2013-06-19 18:11:00,73.0,43.0,29.91,North,355,2.0,7.0,34,0.00,,,0.03,,2013-06-19 22:11:00,
2013-06-19 18:22:00,73.0,43.0,29.91,North,355,2.0,7.0,34,0.00,,,0.03,,2013-06-19 22:22:00,
2013-06-19 18:34:00,72.0,47.0,29.91,North,5,2.0,8.0,41,0.00,,,0.03,,2013-06-19 22:34:00,
2013-06-19 18:43:00,70.0,46.0,29.92,North,360,2.0,7.0,43,0.00,,,0.03,,2013-06-19 22:43:00,
2013-06-19 18:53:00,70.0,46.0,29.92,North,360,2.0,7.0,43,0.00,,,0.03,,2013-06-19 22:53:00,
2013-06-19 19:02:00,69.0,50.0,29.93,SW,221,0.0,5.0,50,0.00,,,0.03,,2013-06-19 23:02:00,
2013-06-19 19:12:00,68.0,47.0,29.93,NW,325,0.0,2.0,47,0.00,,,0.03,,2013-06-19 23:12:00,
2013-06-19 19:23:00,68.0,47.0,29.93,NW,325,0.0,2.0,47,0.00,,,0.03,,2013-06-19 23:23:00,
2013-06-19 19:34:00,67.0,48.0,29.93,North,355,0.0,3.0,50,0.00,,,0.03,,2013-06-19 23:34:00,
2013-06-19 19:43:00,67.0,48.0,29.93,North,355,0.0,5.0,51,0.00,,,0.03,,2013-06-19 23:43:00,
2013-06-19 19:52:00,67.0,48.0,29.93,North,355,0.0,5.0,51,0.00,,,0.03,,2013-06-19 23:52:00,
2013-06-19 20:02:00,66.0,48.0,29.94,NNW,333,0.0,1.0,53,0.00,,,0.03,,2013-06-20 00:02:00,
2013-06-19 20:12:00,65.0,51.0,29.94,NNW,333,0.0,0.0,61,0.00,,,0.03,,2013-06-20 00:12:00,
2013-06-19 20:22:00,65.0,51.0,29.94,NNW,333,0.0,0.0,61,0.00,,,0.03,,2013-06-20 00:22:00,
2013-06-19 20:34:00,64.0,52.0,29.95,NNW,333,0.0,0.0,65,0.00,,,0.02,,2013-06-20 00:34:00,
2013-06-19 20:44:00,64.0,54.0,29.95,NNW,333,0.0,0.0,71,0.00,,,0.02,,2013-06-20 00:44:00,
2013-06-19 20:52:00,64.0,54.0,29.95,NNW,333,0.0,0.0,71,0.00,,,0.02,,2013-06-20 00:52:00,
2013-06-19 21:02:00,63.0,55.0,29.96,NNW,333,0.0,0.0,76,0.00,,,0.02,,2013-06-20 01:02:00,
2013-06-19 21:11:00,63.0,55.0,29.96,NNW,333,0.0,0.0,76,0.00,,,0.02,,2013-06-20 01:11:00,
2013-06-19 21:22:00,62.0,55.0,29.97,NNW,333,0.0,0.0,78,0.00,,,0.02,,2013-06-20 01:22:00,
2013-06-19 21:33:00,61.0,54.0,29.98,NNW,333,0.0,0.0,79,0.00,,,0.02,,2013-06-20 01:33:00,
2013-06-19 21:44:00,61.0,54.0,29.98,NNW,333,0.0,0.0,79,0.00,,,0.02,,2013-06-20 01:44:00,
2013-06-19 21:52:00,61.0,54.0,29.98,NNW,333,0.0,0.0,79,0.00,,,0.02,,2013-06-20 01:52:00,
2013-06-19 22:02:00,59.0,52.0,29.99,NNW,333,0.0,0.0,78,0.00,,,0.02,,2013-06-20 02:02:00,
2013-06-19 22:12:00,58.0,53.0,30.00,NNW,333,0.0,0.0,83,0.00,,,0.02,,2013-06-20 02:12:00,
2013-06-19 22:24:00,58.0,53.0,30.00,NNW,333,0.0,0.0,83,0.00,,,0.02,,2013-06-20 02:24:00,
2013-06-19 22:34:00,57.0,52.0,30.01,NNW,333,0.0,1.0,83,0.00,,,0.02,,2013-06-20 02:34:00,
2013-06-19 22:43:00,57.0,52.0,30.01,NNW,333,0.0,1.0,83,0.00,,,0.02,,2013-06-20 02:43:00,
2013-06-19 22:52:00,57.0,53.0,30.01,NNW,333,0.0,1.0,85,0.00,,,0.02,,2013-06-20 02:52:00,
2013-06-19 23:02:00,57.0,53.0,30.01,NNW,333,0.0,0.0,87,0.00,,,0.02,,2013-06-20 03:02:00,
2013-06-19 23:11:00,56.0,52.0,30.02,North,355,0.0,2.0,87,0.00,,,0.02,,2013-06-20 03:11:00,
2013-06-19 23:22:00,56.0,52.0,30.02,North,355,0.0,2.0,87,0.00,,,0.02,,2013-06-20 03:22:00,
2013-06-19 23:33:00,55.0,52.0,30.02,North,355,0.0,1.0,88,0.01,,,0.03,,2013-06-20 03:33:00,
2013-06-19 23:43:00,55.0,52.0,30.03,North,355,0.0,0.0,89,0.01,,,0.03,,2013-06-20 03:43:00,
2013-06-19 23:54:00,55.0,52.0,30.03,North,355,0.0,0.0,89,0.01,,,0.03,,2013-06-20 03:54:00,